[[{"header":{"parameterUnit":"m.s-1","parameterCategory":1,"la1":30.2991,"la2":30.254,"lo1":-89.0895,"lo2":-89.0444,"dy":0.0017,"dx":0.0017,"nx":28,"ny":28,"refTime":"2025-01-22T09:00:00:Z","depth":0,"parameterNumber":2,"parameterNumberName":"U-component_of_WINDS"},"data":[0,0,0,0,0,0,0,0,0,0,0,0,0,0,0,0,0,0,0,0,0,0,0,0,0,0,0,0,0,0,0,0,0,0,0,0,0,0,0,0,0,0,0,0,0,0,0,0,0,0,0,0,0,0,0,0,0,0,1.0969,1.097,0,1.1005,1.1006,1.1006,1.1027,1.1027,1.1028,1.1028,1.1065,1.1065,1.1066,0,0,0,0,0,0,0,0,0,0,0,0,0,1.0919,1.092,1.0969,1.097,1.097,1.1005,1.1006,1.1006,1.1027,1.1027,1.1028,1.1028,1.1064,1.1065,1.1066,0,0,0,0,0,0,0,0,0,0,0,0,0,1.0947,1.092,1.0969,1.0985,1.0987,1.1005,1.1006,1.1006,1.1027,1.1027,1.1028,1.1028,1.1064,1.1065,1.1067,1.1072,0,0,1.1071,1.1071,0,0,0,0,0,0,0,0,1.0945,1.0948,1.0982,1.0984,1.0986,1.1012,1.1002,1.1029,1.1027,1.1012,1.1028,1.1028,1.1047,1.105,1.1056,1.1074,1.1076,1.1071,1.1072,1.1072,1.1073,0,0,0,0,0,0,0,1.0943,1.0947,1.0983,1.0982,1.0985,1.099,1.0994,1.1007,1.1028,1.1013,1.1015,1.1019,1.1048,1.1055,1.1057,1.1076,1.1071,1.1072,1.1073,1.1073,1.1102,1.1102,0,0,0,0,0,0,1.0939,1.0945,1.0982,1.0985,1.0965,1.0991,1.0996,1.1003,1.1028,1.1032,1.1019,1.102,1.1052,1.1056,1.1059,1.1068,1.1072,1.1073,1.1074,1.1102,1.1102,1.1102,0,0,0,0,0,0,1.0937,1.0942,1.0981,1.0965,1.0971,1.0992,1.1,1.1004,1.1011,1.1032,1.1036,1.1022,1.1053,1.1057,1.1069,1.1069,1.1074,1.1075,1.1102,1.1102,1.1102,1.1086,0,0,0,0,0,0,1.0936,1.0941,1.0943,1.0965,1.0972,1.099,1.1,1.1005,1.1013,1.1015,1.1036,1.104,1.1053,1.1067,1.107,1.1071,1.1076,1.1102,1.1102,1.1102,1.1086,1.1085,1.1084,0,0,0,0,0,1.0934,1.0937,1.0943,1.0947,1.0974,1.099,1.0994,1.1009,1.1013,1.1016,1.103,1.1039,1.1069,1.1068,1.1072,1.1073,1.1102,1.1102,1.1102,1.1087,1.1085,1.1084,0,0,0,0,0,0,1.0914,1.094,1.0947,1.0957,1.0971,1.0994,1.0997,1.1007,1.102,1.1021,1.104,1.1044,1.1055,1.1066,1.1064,1.1081,1.1087,1.1088,1.1074,1.1073,1.1071,1.1069,1.1077,0,0,0,0,0,1.091,1.0921,1.0943,1.095,1.0957,1.0976,1.0983,1.0994,1.1009,1.1016,1.103,1.1045,1.1058,1.1066,1.1079,1.1088,1.1094,1.1091,1.109,1.1089,1.109,1.1097,1.1096,1.1102,1.1102,1.1102,0,0,1.0903,1.0919,1.0924,1.0946,1.0959,1.0969,1.0981,1.0991,1.1,1.1017,1.103,1.1042,1.1059,1.1071,1.1076,1.108,1.1089,1.1089,1.1088,1.1089,1.1097,1.1096,1.1095,1.1102,1.1102,1.1102,0,0,1.0897,1.0909,1.0917,1.0929,1.0948,1.0961,1.0963,1.0984,1.0993,1.1006,1.102,1.103,1.1052,1.1064,1.1073,1.1073,1.1083,1.1077,1.1071,1.1077,1.1077,1.1077,1.1077,1.1077,1.1077,1.1077,1.1077,0,1.0886,1.0902,1.0919,1.093,1.0939,1.0956,1.0964,1.0976,1.0997,1.1004,1.1007,1.1036,1.1049,1.1064,1.1064,1.1071,1.1074,1.1074,1.1076,1.1075,1.1075,1.1076,1.1076,1.1076,1.1076,1.1076,1.1076,0,1.0889,1.09,1.0904,1.0925,1.0935,1.0944,1.0963,1.0971,1.0982,1.0995,1.1009,1.1025,1.1042,1.1047,1.1057,1.1064,1.1065,1.1072,1.1078,1.1074,1.1075,1.1075,1.1075,1.1075,1.1076,1.1076,0,0,1.0869,1.09,1.0901,1.0912,1.0935,1.0944,1.0955,1.0972,1.0979,1.0994,1.1004,1.1022,1.1029,1.1039,1.1051,1.1057,1.1057,1.1063,1.1064,1.1062,1.1067,1.1061,1.1061,1.1064,1.1064,1.1064,1.1065,0,1.0865,1.0885,1.0901,1.0914,1.0926,1.0943,1.0952,1.0968,1.098,1.0992,1.1006,1.102,1.1027,1.1034,1.104,1.1055,1.1058,1.1055,1.1073,1.1073,1.1068,1.1062,1.1056,1.1057,1.1066,1.1066,1.1066,0,1.0864,1.0879,1.0893,1.0916,1.0922,1.093,1.0948,1.0959,1.0977,1.0986,1.0998,1.1011,1.1023,1.1029,1.1047,1.1045,1.1053,1.1062,1.1062,1.1064,1.1069,1.1064,1.1057,1.1057,1.1067,1.1067,1.1066,0,1.0848,1.0872,1.0884,1.0893,1.092,1.0925,1.0937,1.0955,1.0965,1.098,1.0987,1.1004,1.1013,1.1026,1.1043,1.1045,1.106,1.1066,1.1068,1.1068,1.107,1.107,1.1065,1.1075,1.1075,1.1075,1.1075,0,1.0843,1.0851,1.0878,1.0885,1.0896,1.0915,1.0925,1.0938,1.0955,1.0966,1.0981,1.0991,1.1013,1.1026,1.104,1.1053,1.1057,1.1065,1.1068,1.1063,1.1062,1.1069,1.1069,1.1075,1.1075,1.1075,1.1075,0,1.0827,1.0845,1.086,1.0885,1.0891,1.0898,1.0919,1.0928,1.0942,1.0955,1.096,1.0982,1.0998,1.1017,1.1038,1.1048,1.106,1.1065,1.1054,1.1056,1.1057,1.1057,1.1056,1.1057,1.1067,1.1066,1.1066,0,1.0822,1.0829,1.0855,1.0864,1.0875,1.0888,1.0899,1.0918,1.0928,1.0951,1.0957,1.0974,1.0989,1.1014,1.1032,1.1049,1.1055,1.1054,1.1058,1.1053,1.1056,1.1055,1.1056,1.1052,1.1052,1.1052,1.1052,0,1.0812,1.0821,1.0835,1.0853,1.0865,1.088,1.0896,1.0902,1.0925,1.0936,1.0953,1.0964,1.0987,1.1005,1.1025,1.1037,1.1048,1.1051,1.1052,1.1047,1.104,1.1045,1.1051,1.105,1.1051,1.1051,1.1051,1.1051,1.0802,1.081,1.0829,1.0845,1.0859,1.0874,1.0883,1.0899,1.0913,1.0934,1.0945,1.0962,1.0981,1.1009,1.1021,1.1035,1.1039,1.1041,1.1041,1.1041,1.104,1.1038,1.1039,1.1039,1.1039,1.1039,1.1039,0,1.0793,1.0807,1.0821,1.0843,1.0856,1.0866,1.0884,1.0894,1.0909,1.0926,1.0941,1.0961,1.0978,1.0999,1.1017,1.1025,1.103,1.1029,1.1028,1.1031,1.1035,1.1033,1.1024,1.1024,1.1024,1.1024,1.1024,1.1024,1.079,1.0803,1.0815,1.0836,1.085,1.0867,1.0877,1.0891,1.0905,1.0926,1.0941,1.0954,1.0973,1.0994,1.101,1.1016,1.1022,1.1019,1.1026,1.103,1.1031,1.1032,1.1029,1.102,1.102,1.1021,1.1021,1.1021]},{"header":{"parameterUnit":"m.s-1","parameterCategory":1,"la1":30.2991,"la2":30.254,"lo1":-89.0895,"lo2":-89.0444,"dy":0.0017,"dx":0.0017,"nx":28,"ny":28,"refTime":"2025-01-22T09:00:00:Z","depth":0,"parameterNumber":3,"parameterNumberName":"V-component_of_WINDS"},"data":[0,0,0,0,0,0,0,0,0,0,0,0,0,0,0,0,0,0,0,0,0,0,0,0,0,0,0,0,0,0,0,0,0,0,0,0,0,0,0,0,0,0,0,0,0,0,0,0,0,0,0,0,0,0,0,0,0,0,-3.2297,-3.2297,0,-3.2328,-3.2328,-3.2328,-3.2318,-3.2317,-3.2317,-3.2316,-3.2346,-3.2347,-3.2348,0,0,0,0,0,0,0,0,0,0,0,0,0,-3.2229,-3.223,-3.2297,-3.2297,-3.2298,-3.2328,-3.2328,-3.2328,-3.2318,-3.2317,-3.2317,-3.2316,-3.2345,-3.2347,-3.2349,0,0,0,0,0,0,0,0,0,0,0,0,0,-3.2259,-3.2231,-3.2297,-3.2296,-3.2297,-3.2327,-3.2328,-3.2328,-3.2318,-3.2317,-3.2316,-3.2315,-3.2345,-3.2347,-3.2349,-3.2382,0,0,-3.2355,-3.2356,0,0,0,0,0,0,0,0,-3.2257,-3.2261,-3.2296,-3.2296,-3.2297,-3.2318,-3.2315,-3.2346,-3.2319,-3.231,-3.2316,-3.2315,-3.2337,-3.234,-3.2348,-3.2383,-3.2384,-3.2355,-3.2357,-3.2358,-3.2358,0,0,0,0,0,0,0,-3.2255,-3.226,-3.2309,-3.2296,-3.2297,-3.2294,-3.2297,-3.2321,-3.2329,-3.2311,-3.231,-3.2314,-3.2337,-3.2346,-3.2348,-3.2385,-3.2355,-3.2357,-3.2358,-3.2359,-3.245,-3.2451,0,0,0,0,0,0,-3.2253,-3.2258,-3.2308,-3.231,-3.2274,-3.2296,-3.23,-3.2312,-3.2328,-3.233,-3.2315,-3.2313,-3.2343,-3.2346,-3.2349,-3.239,-3.2358,-3.236,-3.2361,-3.2449,-3.2451,-3.2452,0,0,0,0,0,0,-3.2252,-3.2258,-3.2307,-3.2284,-3.229,-3.2299,-3.2312,-3.2313,-3.2322,-3.2332,-3.2333,-3.2322,-3.2342,-3.2346,-3.2374,-3.2391,-3.236,-3.2362,-3.2448,-3.245,-3.2451,-3.2471,0,0,0,0,0,0,-3.225,-3.2257,-3.227,-3.2284,-3.2291,-3.2331,-3.2313,-3.2315,-3.2326,-3.2324,-3.2339,-3.234,-3.2341,-3.2371,-3.2376,-3.2393,-3.2364,-3.2446,-3.2449,-3.2451,-3.2469,-3.2474,-3.2477,0,0,0,0,0,-3.2247,-3.2273,-3.227,-3.2276,-3.2307,-3.2332,-3.2336,-3.2338,-3.2327,-3.234,-3.2346,-3.234,-3.2388,-3.2374,-3.238,-3.2398,-3.2445,-3.2448,-3.245,-3.2467,-3.2473,-3.2477,0,0,0,0,0,0,-3.2259,-3.2275,-3.2272,-3.2304,-3.2317,-3.2331,-3.2347,-3.2343,-3.2359,-3.2357,-3.2358,-3.2361,-3.239,-3.2396,-3.238,-3.2431,-3.2415,-3.2419,-3.2426,-3.2431,-3.2435,-3.2433,-3.2366,0,0,0,0,0,-3.2266,-3.2285,-3.2298,-3.2324,-3.2331,-3.2338,-3.2349,-3.2349,-3.2363,-3.2368,-3.2376,-3.2389,-3.2408,-3.242,-3.2437,-3.247,-3.2474,-3.2485,-3.2489,-3.2493,-3.2496,-3.2516,-3.2521,-3.246,-3.246,-3.246,0,0,-3.2279,-3.229,-3.2302,-3.2327,-3.2337,-3.2358,-3.2343,-3.2364,-3.2379,-3.2371,-3.2398,-3.2405,-3.242,-3.2451,-3.2465,-3.2457,-3.2514,-3.2496,-3.2498,-3.25,-3.2519,-3.2525,-3.253,-3.2462,-3.2462,-3.2461,0,0,-3.2313,-3.2323,-3.2348,-3.2359,-3.2375,-3.238,-3.2385,-3.24,-3.2405,-3.2433,-3.2427,-3.2445,-3.2476,-3.2487,-3.2497,-3.2538,-3.2533,-3.2543,-3.2565,-3.2584,-3.2589,-3.2593,-3.2609,-3.2614,-3.2547,-3.2547,-3.2547,0,-3.2328,-3.2358,-3.236,-3.2383,-3.2395,-3.2389,-3.2414,-3.2425,-3.2445,-3.2454,-3.2445,-3.2485,-3.2494,-3.2529,-3.2539,-3.2547,-3.2554,-3.2542,-3.2588,-3.2592,-3.2596,-3.2611,-3.2617,-3.2548,-3.2548,-3.2548,-3.2548,0,-3.2376,-3.2397,-3.2414,-3.2436,-3.245,-3.2473,-3.2479,-3.2493,-3.2492,-3.2498,-3.2527,-3.2538,-3.2558,-3.2566,-3.2565,-3.2601,-3.2596,-3.2587,-3.2571,-3.2603,-3.2618,-3.2623,-3.255,-3.255,-3.2549,-3.2549,0,0,-3.2418,-3.2442,-3.2448,-3.2459,-3.2477,-3.2494,-3.2517,-3.2538,-3.2551,-3.2565,-3.2586,-3.2613,-3.2606,-3.2617,-3.2617,-3.2634,-3.2668,-3.2624,-3.2624,-3.2632,-3.2709,-3.2717,-3.2723,-3.2664,-3.2665,-3.2666,-3.2709,0,-3.2455,-3.2497,-3.2501,-3.2539,-3.256,-3.2556,-3.2577,-3.259,-3.2596,-3.2615,-3.2621,-3.2641,-3.2629,-3.2636,-3.2653,-3.266,-3.2683,-3.2657,-3.2684,-3.2685,-3.2681,-3.273,-3.2738,-3.2777,-3.2714,-3.2715,-3.2716,0,-3.2503,-3.2522,-3.2562,-3.258,-3.2589,-3.2607,-3.2628,-3.2645,-3.2661,-3.2664,-3.2678,-3.2676,-3.2701,-3.2684,-3.2718,-3.2701,-3.2712,-3.2717,-3.2719,-3.2722,-3.2703,-3.2736,-3.279,-3.2796,-3.2724,-3.2724,-3.2723,0,-3.2532,-3.2566,-3.2596,-3.2605,-3.2625,-3.2639,-3.2648,-3.2663,-3.2676,-3.2693,-3.2702,-3.2721,-3.2733,-3.2748,-3.2752,-3.2739,-3.2787,-3.277,-3.2791,-3.2791,-3.2802,-3.2801,-3.2859,-3.2807,-3.2807,-3.2807,-3.2807,0,-3.2573,-3.2599,-3.2609,-3.2627,-3.2656,-3.266,-3.2688,-3.2696,-3.271,-3.2729,-3.2726,-3.2745,-3.2749,-3.2768,-3.2772,-3.2801,-3.2805,-3.2809,-3.281,-3.281,-3.281,-3.2818,-3.2815,-3.2809,-3.2808,-3.2808,-3.2808,0,-3.261,-3.2617,-3.265,-3.2667,-3.2672,-3.2693,-3.2708,-3.2725,-3.2732,-3.2757,-3.2763,-3.2773,-3.2796,-3.2802,-3.2828,-3.2831,-3.2865,-3.2863,-3.286,-3.2861,-3.2882,-3.288,-3.2948,-3.2957,-3.2898,-3.2899,-3.2899,0,-3.2636,-3.2656,-3.2676,-3.269,-3.27,-3.2722,-3.2736,-3.274,-3.2755,-3.2775,-3.2791,-3.2814,-3.2832,-3.2869,-3.2879,-3.29,-3.2898,-3.292,-3.2901,-3.2901,-3.29,-3.2899,-3.2902,-3.2924,-3.2925,-3.2925,-3.2926,0,-3.2683,-3.2686,-3.2706,-3.2729,-3.2746,-3.2763,-3.278,-3.2791,-3.2798,-3.2815,-3.2839,-3.2853,-3.2882,-3.2905,-3.2927,-3.2936,-3.2932,-3.2932,-3.2938,-3.2939,-3.2937,-3.294,-3.2872,-3.293,-3.293,-3.2929,-3.2929,-3.2929,-3.2716,-3.2734,-3.2752,-3.2775,-3.2789,-3.2805,-3.2823,-3.2832,-3.2853,-3.2877,-3.2879,-3.2905,-3.2922,-3.295,-3.2961,-3.2982,-3.2975,-3.2984,-3.2986,-3.2988,-3.2991,-3.2933,-3.2985,-3.2985,-3.2985,-3.2985,-3.2985,0,-3.2763,-3.2775,-3.2796,-3.2821,-3.284,-3.2836,-3.2855,-3.287,-3.2894,-3.291,-3.2929,-3.2958,-3.2981,-3.2992,-3.3015,-3.303,-3.3029,-3.3036,-3.3035,-3.3037,-3.2995,-3.2988,-3.3036,-3.3036,-3.3036,-3.3036,-3.3036,-3.3036,-3.279,-3.2821,-3.2827,-3.2865,-3.2877,-3.2904,-3.2915,-3.293,-3.2943,-3.2976,-3.2995,-3.3003,-3.3018,-3.3042,-3.3063,-3.3066,-3.3075,-3.3083,-3.3085,-3.3045,-3.304,-3.3035,-3.3029,-3.3084,-3.3084,-3.3126,-3.3126,-3.3126]}]]